Погода в Новой Усмани

Россия / Воронежская область     51°38′38″N   39°24′46″E
темп.,
°C
ветер,
м/с
пор.,
м/с
влажн.,
%
обл.,
%
осадки,
мм/ч
давл.,
гПа
погр.,
м
22 апреля, чт
чт2200:00+6юз389058 0.0 1016171
03:00+4зюз25935 0.1 101891
06:00+4юз23936 0.0 101967
09:00+9юз347712 0.0 1020561
12:00+14юз455117 0.0 10201659
15:00+15ююз464399 0.0 10202183
18:00+13ю2459100 0.0 102093
21:00+12ю3357100 0.0 102152
23 апреля, пт
пт2300:00+11ю3467100 0.0 102076
03:00+10ю3574100 0.0 1020103
06:00+10ю377599 0.0 1020161
09:00+13ю466097 0.0 1020459
12:00+17ююз564395 0.6 10182414
15:00+16ю365092 0.6 10171939
18:00+15ю475371 0.0 1015403
21:00+12ююв51167100 0.1 1015362
24 апреля, сб
сб2400:00+11ююв6127855 0.1 1012378
03:00+10ююз71383100 0.2 1011803
06:00+6зсз6990100 1.6 1012545
09:00+7зсз4677100 2.1 1013984
12:00+9з455662 0.2 10121522
15:00+9зюз4663100 1.4 10121196
18:00+8з4762100 1.6 10121070
21:00+6зюз227120 1.8 101320
25 апреля, вс
вс2500:00+5зюз3578100 0.0 101395
03:00+4з4988100 0.1 1014540
06:00+4зсз5109358 1.5 1015682
09:00+6з58635 1.5 10171153
12:00+9з6944100 0.1 10172448
15:00+10зюз6935100 0.1 10172768
18:00+9зсз584985 0.1 10171358
21:00+6ююз246074 0.1 101887
26 апреля, пн
пн2600:00+5зюз256885 0.0 1018118
03:00+4юз237699 0.0 101863
06:00+5ю2481100 0.0 1017200
09:00+8ююз585898 0.0 10161063
12:00+10ююз6756100 0.0 10151617
15:00+7юз61090100 2.8 10141049
18:00+4сз3495100 3.1 1014461
21:00+4ю3493100 4.6 1013286